TimePST,TemperatureF,Dew PointF,Humidity,Sea Level PressureIn,VisibilityMPH,Wind Direction,Wind SpeedMPH,Gust SpeedMPH,PrecipitationIn,Events,Conditions,WindDirDegrees,DateUTC
12:34 AM,35.6,33.8,93,29.78,10.0,NNW,12.7,-,0.00,Rain,Light Rain,340,2013-03-06 08:34:00
12:53 AM,36.0,33.1,89,29.80,10.0,North,12.7,-,0.00,Rain,Light Rain,350,2013-03-06 08:53:00
1:53 AM,37.0,33.1,86,29.77,10.0,North,12.7,-,0.00,,Overcast,350,2013-03-06 09:53:00
2:53 AM,37.0,33.1,86,29.73,10.0,North,11.5,-,N/A,,Overcast,350,2013-03-06 10:53:00
3:53 AM,37.0,32.0,82,29.72,10.0,North,10.4,-,N/A,,Overcast,350,2013-03-06 11:53:00
4:53 AM,37.0,33.1,86,29.70,10.0,North,9.2,-,0.00,Rain,Light Rain,10,2013-03-06 12:53:00
5:04 AM,37.4,33.8,87,29.67,10.0,North,10.4,-,0.00,Rain,Light Rain,10,2013-03-06 13:04:00
5:53 AM,37.0,33.1,86,29.68,8.0,North,12.7,-,0.03,Rain,Light Rain,360,2013-03-06 13:53:00
6:53 AM,35.1,33.1,92,29.67,10.0,North,12.7,-,0.02,Rain,Light Rain,350,2013-03-06 14:53:00
7:46 AM,37.4,33.8,87,29.63,10.0,North,10.4,-,0.00,Rain,Light Rain,360,2013-03-06 15:46:00
7:53 AM,37.0,34.0,89,29.65,10.0,North,11.5,-,0.00,Rain,Light Rain,350,2013-03-06 15:53:00
8:53 AM,39.0,34.0,82,29.64,10.0,North,11.5,-,0.00,Rain,Light Rain,360,2013-03-06 16:53:00
9:42 AM,39.2,33.8,81,29.60,10.0,North,11.5,-,0.00,Rain,Light Rain,360,2013-03-06 17:42:00
9:53 AM,39.0,34.0,82,29.62,9.0,North,13.8,-,0.01,Rain,Light Rain,350,2013-03-06 17:53:00
10:53 AM,37.9,34.0,86,29.64,10.0,NNW,12.7,-,0.01,,Overcast,340,2013-03-06 18:53:00
11:35 AM,39.2,35.6,87,29.60,10.0,North,12.7,-,0.00,,Overcast,350,2013-03-06 19:35:00
11:53 AM,39.9,36.0,86,29.62,10.0,North,12.7,-,0.00,,Overcast,350,2013-03-06 19:53:00
12:36 PM,39.2,35.6,87,29.60,10.0,NNW,13.8,-,N/A,,Overcast,330,2013-03-06 20:36:00
12:53 PM,39.9,35.1,83,29.62,10.0,NNW,15.0,-,0.00,Rain,Light Rain,330,2013-03-06 20:53:00
1:53 PM,37.9,35.1,89,29.63,8.0,NW,13.8,-,0.03,Rain,Light Rain,320,2013-03-06 21:53:00
2:53 PM,39.9,36.0,86,29.62,10.0,NW,11.5,-,0.01,,Overcast,320,2013-03-06 22:53:00
3:53 PM,37.9,34.0,86,29.65,10.0,WNW,11.5,-,0.00,Rain,Light Rain,300,2013-03-06 23:53:00
4:53 PM,37.9,35.1,89,29.67,6.0,Calm,Calm,-,0.02,Rain,Light Rain,0,2013-03-07 00:53:00
5:53 PM,37.9,34.0,86,29.69,7.0,SW,3.5,-,0.04,Rain,Light Rain,230,2013-03-07 01:53:00
6:00 PM,37.4,35.6,93,29.66,7.0,West,3.5,-,0.02,Rain,Light Rain,260,2013-03-07 02:00:00
6:53 PM,35.1,34.0,96,29.72,6.0,SSW,3.5,-,0.09,Snow,Light Snow,210,2013-03-07 02:53:00
7:10 PM,35.6,33.8,93,29.69,5.0,SSW,5.8,-,0.02,Rain,Light Rain,210,2013-03-07 03:10:00
7:38 PM,35.6,33.8,93,29.70,8.0,WSW,8.1,-,0.03,Rain,Light Rain,240,2013-03-07 03:38:00
7:53 PM,35.1,33.1,92,29.74,10.0,SW,9.2,-,0.04,Rain,Light Rain,230,2013-03-07 03:53:00
8:53 PM,35.1,33.1,92,29.77,10.0,SSW,6.9,-,0.04,Rain,Light Rain,210,2013-03-07 04:53:00
9:53 PM,36.0,34.0,93,29.79,9.0,SW,8.1,-,0.04,Rain,Light Rain,220,2013-03-07 05:53:00
10:53 PM,36.0,35.1,97,29.82,10.0,SSW,6.9,-,0.04,Rain,Light Rain,210,2013-03-07 06:53:00
11:01 PM,35.6,35.6,100,29.79,10.0,SSW,8.1,-,0.00,Rain,Light Rain,200,2013-03-07 07:01:00
11:53 PM,36.0,35.1,97,29.84,10.0,WSW,4.6,-,0.01,Rain,Light Rain,240,2013-03-07 07:53:00